SWA3949 KPHX-KOMA

Flight info

Callsign SWA3949
Flight time 2h 2m
Altitude 37000
Route MRBIL1 JARPA RSK BRK GRI HOWRY3
Aircraft B38M/M-SDE1FGHILORVWXY/HB1

Departure

Time 2026-04-25 04:17
Airport Phoenix Sky Harbor International Airport (KPHX)

Arrival

Time 2026-04-25 06:20
Airport Eppley Airfield (KOMA)
Time Latitude Longitude Altitude Speed Heading
2026-04-25 03:46 33.43405 -111.99621 1121 ft 0 kts 292°
2026-04-25 04:07 33.43400 -111.99608 1118 ft 2 kts 292°
2026-04-25 04:07 33.43395 -111.99585 1120 ft 4 kts 255°
2026-04-25 04:07 33.43407 -111.99574 1119 ft 3 kts 180°
2026-04-25 04:07 33.43426 -111.99574 1118 ft 0 kts 180°
2026-04-25 04:11 33.43425 -111.99574 1127 ft 1 kts 180°
2026-04-25 04:11 33.43400 -111.99574 1123 ft 9 kts 180°
2026-04-25 04:11 33.43321 -111.99573 1124 ft 12 kts 172°
2026-04-25 04:12 33.43283 -111.99501 1127 ft 12 kts 88°
2026-04-25 04:12 33.43283 -111.99390 1122 ft 16 kts 90°
2026-04-25 04:12 33.43243 -111.99340 1121 ft 8 kts 191°
2026-04-25 04:12 33.43235 -111.99342 1121 ft 0 kts 187°
2026-04-25 04:14 33.43232 -111.99342 1134 ft 3 kts 187°
2026-04-25 04:14 33.43211 -111.99344 1131 ft 0 kts 181°
2026-04-25 04:16 33.43185 -111.99345 1133 ft 7 kts 181°
2026-04-25 04:16 33.43127 -111.99345 1137 ft 8 kts 184°
2026-04-25 04:16 33.43104 -111.99395 1135 ft 9 kts 269°
2026-04-25 04:16 33.43105 -111.99597 1135 ft 55 kts 270°
2026-04-25 04:17 33.43103 -112.00336 1134 ft 121 kts 269°
2026-04-25 04:17 33.43107 -112.01565 1149 ft 170 kts 269°
2026-04-25 04:17 33.43116 -112.03019 1754 ft 178 kts 269°
2026-04-25 04:17 33.43107 -112.04515 2439 ft 183 kts 269°
2026-04-25 04:18 33.43149 -112.06137 2841 ft 210 kts 273°
2026-04-25 04:18 33.43204 -112.07849 3657 ft 211 kts 270°
2026-04-25 04:18 33.43250 -112.09676 4288 ft 227 kts 270°
2026-04-25 04:18 33.43304 -112.11609 5034 ft 236 kts 271°
2026-04-25 04:19 33.43361 -112.13592 5880 ft 241 kts 270°
2026-04-25 04:19 33.43425 -112.15610 6717 ft 244 kts 272°
2026-04-25 04:19 33.43910 -112.17567 7503 ft 250 kts 300°
2026-04-25 04:19 33.45167 -112.19048 8291 ft 261 kts 328°
2026-04-25 04:20 33.46926 -112.19677 9074 ft 270 kts 355°
2026-04-25 04:20 33.48825 -112.19644 9826 ft 276 kts 359°
2026-04-25 04:20 33.50764 -112.19620 10558 ft 280 kts 358°
2026-04-25 04:20 33.52698 -112.19585 11267 ft 286 kts
2026-04-25 04:21 33.54724 -112.19132 11663 ft 308 kts 11°
2026-04-25 04:21 33.56868 -112.18480 11992 ft 328 kts 11°
2026-04-25 04:21 33.59148 -112.17802 12357 ft 345 kts 11°
2026-04-25 04:21 33.61441 -112.16738 12886 ft 362 kts 30°
2026-04-25 04:22 33.63351 -112.14745 13668 ft 369 kts 45°
2026-04-25 04:22 33.65142 -112.12497 14229 ft 376 kts 44°
2026-04-25 04:22 33.66957 -112.10211 14905 ft 380 kts 44°
2026-04-25 04:22 33.68789 -112.07888 15545 ft 386 kts 44°
2026-04-25 04:23 33.70641 -112.05533 16181 ft 390 kts 44°
2026-04-25 04:23 33.72512 -112.03150 16829 ft 395 kts 44°
2026-04-25 04:23 33.74415 -112.00718 17379 ft 402 kts 45°
2026-04-25 04:23 33.76146 -111.98046 17945 ft 407 kts 51°
2026-04-25 04:24 33.77854 -111.95299 18467 ft 412 kts 51°
2026-04-25 04:24 33.79596 -111.92534 19007 ft 416 kts 50°
2026-04-25 04:24 33.81338 -111.89791 19544 ft 419 kts 50°
2026-04-25 04:24 33.83122 -111.86988 20073 ft 423 kts 50°
2026-04-25 04:25 33.84920 -111.84165 20588 ft 427 kts 49°
2026-04-25 04:25 33.86735 -111.81312 21109 ft 431 kts 49°
2026-04-25 04:25 33.88563 -111.78437 21617 ft 434 kts 49°
2026-04-25 04:25 33.90408 -111.75535 22127 ft 438 kts 49°
2026-04-25 04:26 33.92266 -111.72606 22614 ft 442 kts 49°
2026-04-25 04:26 33.94139 -111.69655 23093 ft 446 kts 48°
2026-04-25 04:26 33.96025 -111.66679 23548 ft 449 kts 48°
2026-04-25 04:26 33.97925 -111.63679 23952 ft 451 kts 48°
2026-04-25 04:27 33.99919 -111.60768 24355 ft 449 kts 38°
2026-04-25 04:27 34.02379 -111.58517 24741 ft 442 kts 26°
2026-04-25 04:27 34.04932 -111.56495 25064 ft 446 kts 26°
2026-04-25 04:27 34.07542 -111.54449 25545 ft 448 kts 26°
2026-04-25 04:28 34.10173 -111.52410 25981 ft 451 kts 26°
2026-04-25 04:28 34.12824 -111.50366 26432 ft 453 kts 25°
2026-04-25 04:28 34.15487 -111.48317 26845 ft 456 kts 25°
2026-04-25 04:28 34.18173 -111.46251 27240 ft 459 kts 25°
2026-04-25 04:29 34.20877 -111.44168 27615 ft 462 kts 25°
2026-04-25 04:29 34.23593 -111.42075 28038 ft 463 kts 25°
2026-04-25 04:29 34.26318 -111.39973 28378 ft 466 kts 25°
2026-04-25 04:29 34.29061 -111.37855 28734 ft 469 kts 25°
2026-04-25 04:30 34.31816 -111.35727 29069 ft 471 kts 25°
2026-04-25 04:30 34.34587 -111.33585 29448 ft 473 kts 25°
2026-04-25 04:30 34.37370 -111.31432 29732 ft 476 kts 25°
2026-04-25 04:30 34.40170 -111.29265 30023 ft 479 kts 25°
2026-04-25 04:31 34.42986 -111.27082 30281 ft 481 kts 25°
2026-04-25 04:31 34.45813 -111.24890 30422 ft 483 kts 25°
2026-04-25 04:31 34.48649 -111.22689 30694 ft 485 kts 25°
2026-04-25 04:31 34.51504 -111.20471 30921 ft 488 kts 25°
2026-04-25 04:32 34.54332 -111.18273 31189 ft 490 kts 25°
2026-04-25 04:32 34.57215 -111.16029 31452 ft 492 kts 25°
2026-04-25 04:32 34.60109 -111.13776 31669 ft 495 kts 25°
2026-04-25 04:32 34.62924 -111.11331 32012 ft 504 kts 36°
2026-04-25 04:33 34.65424 -111.08314 32393 ft 506 kts 38°
2026-04-25 04:33 34.67943 -111.05311 32508 ft 511 kts 38°
2026-04-25 04:33 34.70479 -111.02263 32782 ft 512 kts 38°
2026-04-25 04:33 34.73015 -110.99197 33003 ft 515 kts 38°
2026-04-25 04:34 34.75559 -110.96117 33252 ft 517 kts 38°
2026-04-25 04:34 34.78111 -110.93024 33579 ft 517 kts 38°
2026-04-25 04:34 34.80656 -110.89936 33909 ft 517 kts 38°
2026-04-25 04:34 34.83197 -110.86850 34190 ft 517 kts 38°
2026-04-25 04:35 34.85750 -110.83746 34485 ft 517 kts 38°
2026-04-25 04:35 34.88290 -110.80656 34808 ft 516 kts 37°
2026-04-25 04:35 34.90793 -110.77607 35096 ft 515 kts 38°
2026-04-25 04:35 34.93331 -110.74513 35393 ft 516 kts 38°
2026-04-25 04:36 34.95873 -110.71412 35567 ft 518 kts 38°
2026-04-25 04:36 34.98422 -110.68299 35771 ft 518 kts 38°
2026-04-25 04:36 35.00970 -110.65185 36028 ft 517 kts 37°
2026-04-25 04:36 35.03508 -110.62079 36153 ft 516 kts 37°
2026-04-25 04:37 35.06046 -110.58971 36396 ft 516 kts 37°
2026-04-25 04:37 35.08577 -110.55868 36641 ft 515 kts 37°
2026-04-25 04:37 35.11104 -110.52769 36825 ft 515 kts 37°
2026-04-25 04:38 35.16127 -110.46596 36815 ft 513 kts 37°
2026-04-25 04:38 35.21157 -110.40404 36812 ft 513 kts 37°
2026-04-25 04:39 35.26182 -110.34207 36822 ft 513 kts 38°
2026-04-25 04:39 35.31200 -110.28008 36797 ft 512 kts 38°
2026-04-25 04:40 35.36217 -110.21797 36803 ft 513 kts 38°
2026-04-25 04:40 35.41231 -110.15578 36800 ft 513 kts 38°
2026-04-25 04:41 35.46209 -110.09393 36794 ft 512 kts 38°
2026-04-25 04:41 35.51205 -110.03174 36812 ft 512 kts 38°
2026-04-25 04:42 35.56202 -109.96941 36803 ft 512 kts 38°
2026-04-25 04:42 35.60393 -109.91706 36794 ft 513 kts 38°
2026-04-25 04:43 35.65395 -109.85448 36786 ft 513 kts 38°
2026-04-25 04:43 35.70374 -109.79156 36790 ft 516 kts 43°
2026-04-25 04:44 35.74847 -109.72192 36811 ft 521 kts 46°
2026-04-25 04:44 35.79283 -109.65159 36783 ft 520 kts 46°
2026-04-25 04:45 35.83685 -109.58160 36779 ft 520 kts 46°
2026-04-25 04:45 35.88121 -109.51090 36781 ft 521 kts 46°
2026-04-25 04:46 35.92558 -109.44007 36795 ft 522 kts 46°
2026-04-25 04:46 35.97000 -109.36898 36789 ft 523 kts 46°
2026-04-25 04:47 36.01436 -109.29786 36789 ft 523 kts 46°
2026-04-25 04:47 36.05843 -109.22704 36798 ft 523 kts 46°
2026-04-25 04:48 36.10272 -109.15575 36795 ft 523 kts 46°
2026-04-25 04:48 36.14702 -109.08426 36789 ft 522 kts 46°
2026-04-25 04:49 36.19109 -109.01302 36797 ft 521 kts 47°
2026-04-25 04:49 36.23521 -108.94153 36782 ft 521 kts 47°
2026-04-25 04:50 36.27921 -108.87012 36784 ft 521 kts 47°
2026-04-25 04:50 36.32317 -108.79859 36773 ft 522 kts 47°
2026-04-25 04:51 36.36680 -108.72746 36778 ft 521 kts 47°
2026-04-25 04:51 36.41065 -108.65582 36779 ft 521 kts 47°
2026-04-25 04:52 36.45445 -108.58411 36772 ft 521 kts 47°
2026-04-25 04:52 36.49825 -108.51222 36811 ft 522 kts 47°
2026-04-25 04:53 36.54205 -108.44022 36777 ft 522 kts 47°
2026-04-25 04:53 36.58589 -108.36800 36853 ft 523 kts 47°
2026-04-25 04:54 36.62973 -108.29561 36889 ft 523 kts 47°
2026-04-25 04:54 36.67350 -108.22321 36899 ft 523 kts 47°
2026-04-25 04:55 36.71699 -108.15113 36910 ft 523 kts 47°
2026-04-25 04:55 36.76188 -108.08006 36891 ft 520 kts 43°
2026-04-25 04:56 36.80849 -108.01072 36895 ft 521 kts 44°
2026-04-25 04:56 36.85470 -107.94123 36832 ft 519 kts 44°
2026-04-25 04:57 36.90083 -107.87169 36811 ft 519 kts 44°
2026-04-25 04:57 36.94689 -107.80211 36882 ft 519 kts 44°
2026-04-25 04:58 36.99262 -107.73290 36930 ft 520 kts 44°
2026-04-25 04:58 37.03867 -107.66304 36931 ft 520 kts 44°
2026-04-25 04:59 37.08470 -107.59307 36927 ft 521 kts 44°
2026-04-25 04:59 37.13073 -107.52295 36908 ft 520 kts 44°
2026-04-25 05:00 37.17666 -107.45284 36882 ft 520 kts 45°
2026-04-25 05:00 37.22262 -107.38253 36848 ft 521 kts 45°
2026-04-25 05:01 37.26847 -107.31224 36953 ft 520 kts 45°
2026-04-25 05:01 37.31413 -107.24207 36955 ft 518 kts 45°
2026-04-25 05:02 37.35951 -107.17223 36964 ft 518 kts 45°
2026-04-25 05:02 37.40511 -107.10186 37021 ft 519 kts 45°
2026-04-25 05:03 37.45055 -107.03161 36918 ft 515 kts 45°
2026-04-25 05:03 37.49584 -106.96143 36946 ft 516 kts 45°
2026-04-25 05:04 37.54108 -106.89120 36904 ft 516 kts 45°
2026-04-25 05:04 37.58595 -106.82137 36861 ft 515 kts 45°
2026-04-25 05:05 37.63114 -106.75092 36877 ft 517 kts 45°
2026-04-25 05:05 37.67625 -106.68040 36891 ft 515 kts 45°
2026-04-25 05:06 37.72112 -106.61014 36943 ft 513 kts 45°
2026-04-25 05:06 37.76592 -106.53982 36939 ft 514 kts 46°
2026-04-25 05:07 37.81055 -106.46964 36957 ft 515 kts 46°
2026-04-25 05:07 37.85528 -106.39915 36951 ft 514 kts 46°
2026-04-25 05:08 37.90006 -106.32842 36920 ft 514 kts 46°
2026-04-25 05:08 37.94457 -106.25796 36901 ft 512 kts 46°
2026-04-25 05:09 37.98903 -106.18743 36801 ft 511 kts 46°
2026-04-25 05:09 38.03329 -106.11705 36791 ft 507 kts 46°
2026-04-25 05:10 38.07723 -106.04706 36785 ft 507 kts 46°
2026-04-25 05:10 38.12085 -105.97742 36790 ft 507 kts 46°
2026-04-25 05:11 38.16473 -105.90721 36782 ft 507 kts 46°
2026-04-25 05:11 38.20853 -105.83697 36787 ft 507 kts 46°
2026-04-25 05:12 38.27424 -105.73131 36788 ft 506 kts 46°
2026-04-25 05:12 38.31771 -105.66123 36785 ft 507 kts 47°
2026-04-25 05:13 38.36122 -105.59091 36764 ft 505 kts 47°
2026-04-25 05:13 38.40468 -105.52055 36774 ft 505 kts 47°
2026-04-25 05:14 38.44811 -105.45009 36773 ft 505 kts 47°
2026-04-25 05:15 38.51305 -105.34443 36760 ft 504 kts 47°
2026-04-25 05:15 38.55633 -105.27380 36744 ft 504 kts 47°
2026-04-25 05:16 38.59951 -105.20321 36771 ft 503 kts 47°
2026-04-25 05:16 38.64243 -105.13287 36745 ft 501 kts 47°
2026-04-25 05:17 38.68530 -105.06245 36740 ft 501 kts 48°
2026-04-25 05:17 38.72816 -104.99192 36823 ft 501 kts 48°
2026-04-25 05:18 38.77091 -104.92144 36849 ft 501 kts 48°
2026-04-25 05:18 38.81351 -104.85107 36866 ft 504 kts 48°
2026-04-25 05:19 38.85650 -104.77989 36899 ft 504 kts 48°
2026-04-25 05:19 38.89943 -104.70865 36901 ft 505 kts 48°
2026-04-25 05:20 38.94193 -104.63674 36932 ft 508 kts 55°
2026-04-25 05:20 38.97261 -104.55470 36918 ft 512 kts 62°
2026-04-25 05:21 39.00261 -104.47167 36940 ft 512 kts 63°
2026-04-25 05:21 39.03239 -104.38844 36872 ft 512 kts 63°
2026-04-25 05:22 39.06211 -104.30511 36826 ft 512 kts 63°
2026-04-25 05:22 39.09172 -104.22184 36780 ft 512 kts 63°
2026-04-25 05:23 39.12129 -104.13847 36755 ft 511 kts 63°
2026-04-25 05:23 39.15052 -104.05580 36760 ft 510 kts 63°
2026-04-25 05:24 39.17992 -103.97242 36792 ft 510 kts 63°
2026-04-25 05:24 39.20922 -103.88911 36829 ft 509 kts 63°
2026-04-25 05:25 39.23821 -103.80642 36857 ft 508 kts 63°
2026-04-25 05:25 39.26727 -103.72330 36868 ft 508 kts 63°
2026-04-25 05:26 39.29629 -103.64006 36869 ft 508 kts 63°
2026-04-25 05:26 39.32526 -103.55671 36860 ft 508 kts 63°
2026-04-25 05:27 39.35419 -103.47326 36815 ft 508 kts 63°
2026-04-25 05:27 39.38301 -103.38987 36710 ft 507 kts 63°
2026-04-25 05:28 39.41149 -103.30723 36694 ft 506 kts 63°
2026-04-25 05:28 39.44014 -103.22385 36694 ft 507 kts 63°
2026-04-25 05:29 39.46390 -103.15452 36708 ft 507 kts 63°
2026-04-25 05:29 39.49241 -103.07110 36710 ft 505 kts 63°
2026-04-25 05:30 39.52070 -102.98809 36706 ft 504 kts 63°
2026-04-25 05:30 39.54899 -102.90486 36699 ft 504 kts 63°
2026-04-25 05:31 39.57720 -102.82159 36704 ft 505 kts 63°
2026-04-25 05:31 39.60518 -102.73876 36708 ft 504 kts 63°
2026-04-25 05:32 39.63326 -102.65542 36710 ft 504 kts 63°
2026-04-25 05:32 39.66133 -102.57184 36702 ft 504 kts 64°
2026-04-25 05:33 39.68928 -102.48840 36703 ft 504 kts 64°
2026-04-25 05:33 39.71720 -102.40478 36692 ft 504 kts 64°
2026-04-25 05:34 39.74503 -102.32116 36701 ft 503 kts 64°
2026-04-25 05:34 39.77259 -102.23815 36701 ft 503 kts 64°
2026-04-25 05:35 39.80026 -102.15455 36704 ft 503 kts 64°
2026-04-25 05:35 39.82788 -102.07083 36715 ft 503 kts 64°
2026-04-25 05:36 39.85545 -101.98701 36756 ft 503 kts 64°
2026-04-25 05:36 39.88302 -101.90297 36724 ft 504 kts 64°
2026-04-25 05:37 39.91036 -101.81937 36725 ft 505 kts 64°
2026-04-25 05:37 39.93782 -101.73514 36722 ft 505 kts 64°
2026-04-25 05:38 39.96523 -101.65079 36706 ft 504 kts 65°
2026-04-25 05:38 39.99239 -101.56699 36716 ft 500 kts 65°
2026-04-25 05:39 40.01940 -101.48340 36722 ft 500 kts 65°
2026-04-25 05:39 40.04640 -101.39959 36724 ft 500 kts 65°
2026-04-25 05:40 40.07311 -101.31641 36722 ft 500 kts 65°
2026-04-25 05:40 40.09989 -101.23276 36720 ft 497 kts 66°
2026-04-25 05:41 40.12651 -101.14938 36725 ft 497 kts 66°
2026-04-25 05:41 40.15305 -101.06600 36724 ft 497 kts 66°
2026-04-25 05:42 40.17957 -100.98241 36741 ft 497 kts 66°
2026-04-25 05:42 40.20588 -100.89922 36745 ft 497 kts 66°
2026-04-25 05:43 40.23226 -100.81558 36753 ft 497 kts 66°
2026-04-25 05:43 40.25856 -100.73191 36759 ft 497 kts 66°
2026-04-25 05:44 40.28482 -100.64811 36756 ft 497 kts 66°
2026-04-25 05:44 40.31102 -100.56428 36750 ft 497 kts 66°
2026-04-25 05:45 40.33707 -100.48064 36761 ft 494 kts 66°
2026-04-25 05:45 40.36297 -100.39723 36770 ft 494 kts 66°
2026-04-25 05:46 40.38868 -100.31418 36773 ft 494 kts 66°
2026-04-25 05:46 40.41449 -100.23055 36769 ft 494 kts 66°
2026-04-25 05:47 40.44025 -100.14683 36769 ft 495 kts 66°
2026-04-25 05:47 40.46598 -100.06293 36774 ft 496 kts 66°
2026-04-25 05:48 40.49168 -99.97888 36789 ft 496 kts 66°
2026-04-25 05:48 40.51739 -99.89453 36799 ft 497 kts 66°
2026-04-25 05:49 40.54304 -99.81011 36825 ft 498 kts 66°
2026-04-25 05:49 40.56887 -99.72483 36815 ft 504 kts 66°
2026-04-25 05:50 40.59476 -99.63906 36814 ft 504 kts 66°
2026-04-25 05:50 40.62043 -99.55377 36831 ft 504 kts 66°
2026-04-25 05:51 40.64620 -99.46784 36834 ft 504 kts 67°
2026-04-25 05:51 40.67198 -99.38161 36841 ft 508 kts 66°
2026-04-25 05:52 40.69784 -99.29484 36871 ft 508 kts 66°
2026-04-25 05:52 40.72360 -99.20811 36889 ft 508 kts 66°
2026-04-25 05:53 40.74934 -99.12116 36894 ft 508 kts 66°
2026-04-25 05:53 40.77481 -99.03484 36901 ft 505 kts 67°
2026-04-25 05:54 40.80013 -98.94877 36862 ft 501 kts 67°
2026-04-25 05:54 40.83790 -98.81994 36882 ft 501 kts 67°
2026-04-25 05:55 40.86297 -98.73418 35972 ft 501 kts 66°
2026-04-25 05:55 40.87541 -98.69144 35625 ft 492 kts 67°
2026-04-25 05:55 40.88749 -98.64989 35589 ft 477 kts 67°
2026-04-25 05:56 40.89919 -98.60959 35549 ft 462 kts 67°
2026-04-25 05:56 40.91053 -98.57047 35489 ft 450 kts 67°
2026-04-25 05:56 40.93287 -98.49327 35455 ft 458 kts 67°
2026-04-25 05:57 40.95588 -98.41354 35406 ft 469 kts 67°
2026-04-25 05:57 40.97935 -98.33192 35337 ft 478 kts 67°
2026-04-25 05:58 41.00151 -98.24886 35161 ft 477 kts 68°
2026-04-25 05:58 41.01260 -98.20751 35037 ft 476 kts 68°
2026-04-25 05:58 41.02367 -98.16625 34917 ft 474 kts 68°
2026-04-25 05:59 41.04559 -98.08446 34723 ft 475 kts 68°
2026-04-25 05:59 41.05668 -98.04304 33940 ft 479 kts 67°
2026-04-25 05:59 41.06789 -98.00101 32948 ft 486 kts 67°
2026-04-25 06:00 41.07914 -97.95873 32323 ft 485 kts 68°
2026-04-25 06:00 41.09026 -97.91693 31997 ft 476 kts 68°
2026-04-25 06:00 41.10115 -97.87593 31666 ft 468 kts 68°
2026-04-25 06:00 41.11190 -97.83541 31188 ft 464 kts 69°
2026-04-25 06:01 41.12256 -97.79513 30779 ft 458 kts 69°
2026-04-25 06:01 41.13297 -97.75577 30598 ft 447 kts 69°
2026-04-25 06:01 41.14335 -97.71644 30363 ft 457 kts 69°
2026-04-25 06:01 41.15389 -97.67639 29720 ft 461 kts 69°
2026-04-25 06:02 41.16432 -97.63675 29074 ft 459 kts 69°
2026-04-25 06:02 41.17479 -97.59686 28601 ft 454 kts 70°
2026-04-25 06:02 41.18513 -97.55742 28120 ft 449 kts 70°
2026-04-25 06:02 41.19534 -97.51842 27609 ft 446 kts 70°
2026-04-25 06:03 41.20547 -97.47966 27131 ft 442 kts 70°
2026-04-25 06:03 41.21549 -97.44125 26639 ft 439 kts 71°
2026-04-25 06:03 41.22543 -97.40309 26151 ft 436 kts 71°
2026-04-25 06:03 41.23531 -97.36511 25672 ft 433 kts 71°
2026-04-25 06:04 41.24511 -97.32732 25193 ft 431 kts 71°
2026-04-25 06:04 41.25487 -97.28969 24714 ft 429 kts 71°
2026-04-25 06:04 41.26463 -97.25199 23971 ft 434 kts 71°
2026-04-25 06:04 41.27446 -97.21393 23094 ft 434 kts 71°
2026-04-25 06:05 41.28421 -97.17617 22207 ft 429 kts 72°
2026-04-25 06:05 41.29382 -97.13889 21352 ft 424 kts 72°
2026-04-25 06:05 41.30322 -97.10232 20539 ft 420 kts 72°
2026-04-25 06:05 41.31265 -97.06564 19744 ft 416 kts 72°
2026-04-25 06:06 41.32195 -97.02936 18979 ft 412 kts 72°
2026-04-25 06:06 41.33116 -96.99340 18228 ft 408 kts 72°
2026-04-25 06:06 41.34028 -96.95777 17387 ft 404 kts 72°
2026-04-25 06:06 41.34929 -96.92253 16598 ft 400 kts 72°
2026-04-25 06:07 41.35816 -96.88780 15931 ft 393 kts 72°
2026-04-25 06:07 41.36658 -96.85351 15315 ft 385 kts 77°
2026-04-25 06:07 41.37089 -96.81887 14754 ft 375 kts 83°
2026-04-25 06:07 41.37461 -96.78522 14115 ft 370 kts 83°
2026-04-25 06:08 41.37843 -96.75104 13486 ft 365 kts 83°
2026-04-25 06:08 41.38212 -96.71817 13040 ft 353 kts 83°
2026-04-25 06:08 41.38568 -96.68637 12629 ft 342 kts 83°
2026-04-25 06:08 41.38910 -96.65585 12235 ft 332 kts 83°
2026-04-25 06:09 41.39245 -96.62590 11816 ft 324 kts 84°
2026-04-25 06:09 41.39574 -96.59636 11242 ft 322 kts 84°
2026-04-25 06:09 41.39901 -96.56691 10649 ft 321 kts 84°
2026-04-25 06:09 41.40226 -96.53757 10091 ft 319 kts 84°
2026-04-25 06:10 41.40550 -96.50835 9490 ft 318 kts 84°
2026-04-25 06:10 41.40871 -96.47931 8873 ft 316 kts 84°
2026-04-25 06:10 41.41189 -96.45047 8264 ft 313 kts 84°
2026-04-25 06:10 41.41501 -96.42199 7758 ft 308 kts 84°
2026-04-25 06:11 41.41805 -96.39424 7398 ft 297 kts 85°
2026-04-25 06:11 41.42098 -96.36754 7116 ft 285 kts 85°
2026-04-25 06:11 41.42377 -96.34189 6860 ft 275 kts 85°
2026-04-25 06:11 41.42650 -96.31690 6637 ft 270 kts 85°
2026-04-25 06:12 41.42917 -96.29226 6351 ft 268 kts 85°
2026-04-25 06:12 41.43183 -96.26780 6040 ft 263 kts 85°
2026-04-25 06:12 41.43439 -96.24428 5771 ft 248 kts 85°
2026-04-25 06:12 41.43675 -96.22239 5554 ft 229 kts 86°
2026-04-25 06:13 41.43893 -96.20228 5433 ft 210 kts 86°
2026-04-25 06:13 41.44091 -96.18385 5314 ft 194 kts 86°
2026-04-25 06:13 41.44279 -96.16637 5228 ft 188 kts 86°
2026-04-25 06:14 41.44641 -96.13256 5085 ft 181 kts 87°
2026-04-25 06:14 41.44818 -96.11601 5006 ft 180 kts 87°
2026-04-25 06:14 41.44994 -96.09957 4901 ft 179 kts 87°
2026-04-25 06:14 41.45169 -96.08323 4774 ft 178 kts 86°
2026-04-25 06:15 41.45344 -96.06681 4660 ft 181 kts 86°
2026-04-25 06:15 41.45339 -96.05027 4401 ft 177 kts 111°
2026-04-25 06:15 41.44713 -96.03661 4200 ft 173 kts 133°
2026-04-25 06:15 41.43844 -96.02558 3985 ft 172 kts 142°
2026-04-25 06:16 41.42889 -96.01596 3772 ft 171 kts 144°
2026-04-25 06:16 41.41932 -96.00675 3557 ft 167 kts 145°
2026-04-25 06:16 41.41332 -96.00101 3434 ft 153 kts 145°
2026-04-25 06:16 41.40240 -95.99055 3180 ft 141 kts 145°
2026-04-25 06:17 41.39449 -95.98300 2996 ft 139 kts 145°
2026-04-25 06:17 41.38667 -95.97553 2810 ft 138 kts 145°
2026-04-25 06:17 41.37889 -95.96809 2622 ft 138 kts 145°
2026-04-25 06:17 41.37373 -95.96318 2501 ft 137 kts 144°
2026-04-25 06:18 41.36599 -95.95578 2332 ft 138 kts 144°
2026-04-25 06:18 41.35816 -95.94830 2124 ft 139 kts 144°
2026-04-25 06:18 41.35023 -95.94078 1896 ft 142 kts 144°
2026-04-25 06:18 41.34193 -95.93308 1687 ft 150 kts 143°
2026-04-25 06:19 41.33336 -95.92488 1511 ft 153 kts 143°
2026-04-25 06:19 41.32462 -95.91642 1302 ft 157 kts 144°
2026-04-25 06:19 41.31574 -95.90794 1070 ft 157 kts 143°
2026-04-25 06:19 41.30741 -95.89998 992 ft 132 kts 144°
2026-04-25 06:20 41.30181 -95.89466 984 ft 73 kts 144°
2026-04-25 06:20 41.29867 -95.89168 993 ft 39 kts 144°
2026-04-25 06:20 41.29752 -95.89101 991 ft 12 kts 218°
2026-04-25 06:20 41.29712 -95.89192 987 ft 8 kts 269°
2026-04-25 06:21 41.29754 -95.89243 987 ft 9 kts 326°
2026-04-25 06:21 41.29812 -95.89299 992 ft 12 kts 324°
2026-04-25 06:21 41.29887 -95.89368 990 ft 15 kts 325°
2026-04-25 06:21 41.29977 -95.89453 994 ft 17 kts 324°
2026-04-25 06:22 41.30076 -95.89546 988 ft 18 kts 325°
2026-04-25 06:22 41.30173 -95.89638 992 ft 14 kts 324°
2026-04-25 06:22 41.30254 -95.89716 992 ft 15 kts 323°
2026-04-25 06:22 41.30317 -95.89795 989 ft 10 kts 274°
2026-04-25 06:23 41.30278 -95.89847 990 ft 7 kts 149°
2026-04-25 06:23 41.30237 -95.89803 995 ft 6 kts 135°
2026-04-25 06:23 41.30202 -95.89769 994 ft 5 kts 173°
2026-04-25 06:23 41.30176 -95.89789 990 ft 2 kts 234°
2026-04-25 06:24 41.30167 -95.89807 993 ft 1 kts 233°